Time,TemperatureF,DewpointF,PressureIn,WindDirection,WindDirectionDegrees,WindSpeedMPH,WindSpeedGustMPH,Humidity,HourlyPrecipIn,Conditions,Clouds,dailyrainin,SoftwareType,DateUTC
2013-05-14 00:01:00,38.8,33.2,30.10,NNW,336,1.1,3.5,80,0.00,FEW,,0.00,WeatherDisplay:10.37,2013-05-14 04:01:00,
2013-05-14 00:06:00,38.8,33.2,30.09,NW,323,0.9,4.0,80,0.00,SCT,,0.00,WeatherDisplay:10.37,2013-05-14 04:06:00,
2013-05-14 00:11:00,38.7,33.1,30.09,NW,321,0.5,3.5,80,0.00,SCT,,0.00,WeatherDisplay:10.37,2013-05-14 04:11:00,
2013-05-14 00:16:00,38.7,33.1,30.09,NW,324,0.1,0.0,80,0.00,SCT,,0.00,WeatherDisplay:10.37,2013-05-14 04:16:00,
2013-05-14 00:21:00,38.6,33.0,30.09,NW,324,0.5,3.5,80,0.00,SCT,,0.00,WeatherDisplay:10.37,2013-05-14 04:21:00,
2013-05-14 00:27:00,38.5,32.9,30.09,NW,324,0.7,0.0,80,0.00,SCT,,0.00,WeatherDisplay:10.37,2013-05-14 04:27:00,
2013-05-14 00:32:00,38.5,32.6,30.09,NW,324,0.1,0.0,79,0.00,SCT,,0.00,WeatherDisplay:10.37,2013-05-14 04:32:00,
2013-05-14 00:37:00,38.4,32.8,30.09,NW,324,0.5,1.2,80,0.00,SCT,,0.00,WeatherDisplay:10.37,2013-05-14 04:37:00,
2013-05-14 00:42:00,38.6,33.0,30.09,NW,324,0.1,1.0,80,0.00,SCT,,0.00,WeatherDisplay:10.37,2013-05-14 04:42:00,
2013-05-14 00:47:00,38.7,33.1,30.09,NW,324,0.5,2.3,80,0.00,SCT,,0.00,WeatherDisplay:10.37,2013-05-14 04:47:00,
2013-05-14 00:52:00,38.8,32.8,30.08,NW,324,0.4,1.2,79,0.00,SCT,,0.00,WeatherDisplay:10.37,2013-05-14 04:52:00,
2013-05-14 00:57:00,38.9,32.9,30.08,NW,324,0.1,1.2,79,0.00,SCT,,0.00,WeatherDisplay:10.37,2013-05-14 04:57:00,
2013-05-14 01:02:00,39.0,33.0,30.09,NW,324,0.3,1.0,79,0.00,BKN,,0.00,WeatherDisplay:10.37,2013-05-14 05:02:00,
2013-05-14 01:07:00,39.1,32.8,30.09,NW,324,0.0,0.0,78,0.00,BKN,,0.00,WeatherDisplay:10.37,2013-05-14 05:07:00,
2013-05-14 01:12:00,39.1,32.8,30.08,NW,324,0.0,0.0,78,0.00,BKN,,0.00,WeatherDisplay:10.37,2013-05-14 05:12:00,
2013-05-14 01:17:00,39.2,32.9,30.08,NW,324,0.0,0.0,78,0.00,BKN,,0.00,WeatherDisplay:10.37,2013-05-14 05:17:00,
2013-05-14 01:22:00,39.3,33.0,30.08,NW,324,0.0,0.0,78,0.00,BKN,,0.00,WeatherDisplay:10.37,2013-05-14 05:22:00,
2013-05-14 01:27:00,39.3,33.0,30.08,NW,324,0.0,0.0,78,0.00,BKN,,0.00,WeatherDisplay:10.37,2013-05-14 05:27:00,
2013-05-14 01:32:00,39.2,33.2,30.08,NW,324,0.5,2.3,79,0.00,BKN,,0.00,WeatherDisplay:10.37,2013-05-14 05:32:00,
2013-05-14 01:37:00,39.1,32.8,30.08,NW,324,0.0,0.0,78,0.00,BKN,,0.00,WeatherDisplay:10.37,2013-05-14 05:37:00,
2013-05-14 01:43:00,39.1,33.1,30.08,NW,324,0.3,2.3,79,0.00,BKN,,0.00,WeatherDisplay:10.37,2013-05-14 05:43:00,
2013-05-14 01:48:00,39.1,33.1,30.08,NW,324,0.3,2.0,79,0.00,BKN,,0.00,WeatherDisplay:10.37,2013-05-14 05:48:00,
2013-05-14 01:53:00,39.1,32.8,30.08,NW,324,0.5,2.0,78,0.00,BKN,,0.00,WeatherDisplay:10.37,2013-05-14 05:53:00,
2013-05-14 01:58:00,39.2,32.9,30.08,NW,312,0.5,2.3,78,0.00,BKN,,0.00,WeatherDisplay:10.37,2013-05-14 05:58:00,
2013-05-14 02:03:00,39.2,32.9,30.08,NW,312,0.2,2.3,78,0.00,SCT,,0.00,WeatherDisplay:10.37,2013-05-14 06:03:00,
2013-05-14 02:08:00,39.2,32.9,30.08,NW,312,0.0,0.0,78,0.00,SCT,,0.00,WeatherDisplay:10.37,2013-05-14 06:08:00,
2013-05-14 02:14:00,39.1,33.1,30.08,NW,312,0.2,1.2,79,0.00,SCT,,0.00,WeatherDisplay:10.37,2013-05-14 06:14:00,
2013-05-14 02:19:00,39.0,32.1,30.08,NW,312,0.1,1.2,76,0.00,SCT,,0.00,WeatherDisplay:10.37,2013-05-14 06:19:00,
2013-05-14 02:24:00,38.9,32.0,30.08,NW,312,0.2,1.2,76,0.00,SCT,,0.00,WeatherDisplay:10.37,2013-05-14 06:24:00,
2013-05-14 02:29:00,38.9,32.3,30.08,NW,312,0.0,0.0,77,0.00,SCT,,0.00,WeatherDisplay:10.37,2013-05-14 06:29:00,
2013-05-14 02:34:00,38.9,32.9,30.08,NW,312,0.0,0.0,79,0.00,SCT,,0.00,WeatherDisplay:10.37,2013-05-14 06:34:00,
2013-05-14 02:39:00,38.8,32.2,30.08,NW,312,0.0,0.0,77,0.00,SCT,,0.00,WeatherDisplay:10.37,2013-05-14 06:39:00,
2013-05-14 02:45:00,38.9,32.0,30.08,NW,312,0.0,0.0,76,0.00,SCT,,0.00,WeatherDisplay:10.37,2013-05-14 06:45:00,
2013-05-14 02:50:00,39.0,32.4,30.08,NW,312,0.3,2.3,77,0.00,SCT,,0.00,WeatherDisplay:10.37,2013-05-14 06:50:00,
2013-05-14 02:55:00,39.1,33.1,30.08,NW,323,3.3,5.8,79,0.00,SCT,,0.00,WeatherDisplay:10.37,2013-05-14 06:55:00,
2013-05-14 03:00:00,39.2,33.2,30.09,NW,309,2.0,5.0,79,0.00,SCT,,0.00,WeatherDisplay:10.37,2013-05-14 07:00:00,
2013-05-14 03:05:00,39.2,32.9,30.09,NNW,335,0.8,3.5,78,0.00,BKN,,0.00,WeatherDisplay:10.37,2013-05-14 07:05:00,
2013-05-14 03:10:00,39.2,33.2,30.09,North,355,3.2,4.6,79,0.00,BKN,,0.00,WeatherDisplay:10.37,2013-05-14 07:10:00,
2013-05-14 03:15:00,39.3,33.0,30.09,NW,322,0.8,3.0,78,0.00,BKN,,0.00,WeatherDisplay:10.37,2013-05-14 07:15:00,
2013-05-14 03:20:00,39.3,33.3,30.09,NNW,347,1.9,3.5,79,0.00,BKN,,0.00,WeatherDisplay:10.37,2013-05-14 07:20:00,
2013-05-14 03:25:00,39.3,33.3,30.09,NNW,331,1.4,4.6,79,0.00,BKN,,0.00,WeatherDisplay:10.37,2013-05-14 07:25:00,
2013-05-14 03:30:00,39.3,33.3,30.09,NNW,334,0.0,1.2,79,0.00,BKN,,0.00,WeatherDisplay:10.37,2013-05-14 07:30:00,
2013-05-14 03:35:00,39.3,33.0,30.09,NW,325,1.1,2.3,78,0.00,BKN,,0.00,WeatherDisplay:10.37,2013-05-14 07:35:00,
2013-05-14 03:40:00,39.3,33.0,30.09,North,350,0.5,3.5,78,0.00,BKN,,0.00,WeatherDisplay:10.37,2013-05-14 07:40:00,
2013-05-14 03:46:00,39.2,32.9,30.09,NNE,13,1.7,7.0,78,0.00,BKN,,0.00,WeatherDisplay:10.37,2013-05-14 07:46:00,
2013-05-14 03:51:00,39.2,33.2,30.09,NW,326,0.0,2.3,79,0.00,BKN,,0.00,WeatherDisplay:10.37,2013-05-14 07:51:00,
2013-05-14 03:56:00,39.2,33.2,30.09,NW,326,0.1,1.2,79,0.00,BKN,,0.00,WeatherDisplay:10.37,2013-05-14 07:56:00,
2013-05-14 04:01:00,39.2,33.2,30.09,NW,326,1.3,3.5,79,0.00,BKN,,0.00,WeatherDisplay:10.37,2013-05-14 08:01:00,
2013-05-14 04:06:00,39.2,33.2,30.09,NW,326,0.0,0.0,79,0.00,BKN,,0.00,WeatherDisplay:10.37,2013-05-14 08:06:00,
2013-05-14 04:11:00,39.2,33.2,30.10,NW,326,0.0,0.0,79,0.00,BKN,,0.00,WeatherDisplay:10.37,2013-05-14 08:11:00,
2013-05-14 04:16:00,39.1,33.1,30.10,NW,326,0.0,0.0,79,0.00,BKN,,0.00,WeatherDisplay:10.37,2013-05-14 08:16:00,
2013-05-14 04:21:00,39.2,33.5,30.10,NW,326,0.2,1.0,80,0.00,BKN,,0.00,WeatherDisplay:10.37,2013-05-14 08:21:00,
2013-05-14 04:26:00,39.2,33.5,30.10,NW,326,0.1,0.0,80,0.00,BKN,,0.00,WeatherDisplay:10.37,2013-05-14 08:26:00,
2013-05-14 04:32:00,39.2,33.9,30.10,NNW,327,0.0,1.0,81,0.00,BKN,,0.00,WeatherDisplay:10.37,2013-05-14 08:32:00,
2013-05-14 04:37:00,39.1,33.8,30.10,NNW,327,0.7,2.3,81,0.00,BKN,,0.00,WeatherDisplay:10.37,2013-05-14 08:37:00,
2013-05-14 04:42:00,39.0,33.4,30.10,NNW,327,0.0,0.0,80,0.00,BKN,,0.00,WeatherDisplay:10.37,2013-05-14 08:42:00,
2013-05-14 04:47:00,39.0,33.7,30.10,NNW,327,0.0,1.0,81,0.00,BKN,,0.00,WeatherDisplay:10.37,2013-05-14 08:47:00,
2013-05-14 04:52:00,39.0,33.7,30.10,NNW,334,1.9,3.5,81,0.00,BKN,,0.00,WeatherDisplay:10.37,2013-05-14 08:52:00,
2013-05-14 04:57:00,39.0,33.7,30.10,NNW,344,0.0,1.0,81,0.00,BKN,,0.00,WeatherDisplay:10.37,2013-05-14 08:57:00,
2013-05-14 05:02:00,38.9,33.6,30.10,NNW,344,0.0,0.0,81,0.00,BKN,,0.00,WeatherDisplay:10.37,2013-05-14 09:02:00,
2013-05-14 05:08:00,38.9,33.6,30.10,NNW,344,0.2,2.3,81,0.00,BKN,,0.00,WeatherDisplay:10.37,2013-05-14 09:08:00,
2013-05-14 05:13:00,38.8,33.5,30.10,NNW,344,0.1,1.2,81,0.00,BKN,,0.00,WeatherDisplay:10.37,2013-05-14 09:13:00,
2013-05-14 05:18:00,38.8,33.5,30.10,NNW,348,0.3,3.5,81,0.00,BKN,,0.00,WeatherDisplay:10.37,2013-05-14 09:18:00,
2013-05-14 05:23:00,38.8,33.5,30.10,NNW,348,0.0,0.0,81,0.00,BKN,,0.00,WeatherDisplay:10.37,2013-05-14 09:23:00,
2013-05-14 05:28:00,38.8,33.5,30.10,NNW,347,1.1,2.3,81,0.00,BKN,,0.00,WeatherDisplay:10.37,2013-05-14 09:28:00,
2013-05-14 05:33:00,38.7,33.4,30.09,NNW,348,0.0,2.3,81,0.00,BKN,,0.00,WeatherDisplay:10.37,2013-05-14 09:33:00,
2013-05-14 05:38:00,38.7,33.4,30.10,NNW,347,0.7,2.3,81,0.00,BKN,,0.00,WeatherDisplay:10.37,2013-05-14 09:38:00,
2013-05-14 05:43:00,38.6,33.3,30.10,NNW,347,1.8,2.3,81,0.00,BKN,,0.00,WeatherDisplay:10.37,2013-05-14 09:43:00,
2013-05-14 05:49:00,38.4,33.4,30.10,NW,323,2.1,2.3,82,0.00,BKN,,0.00,WeatherDisplay:10.37,2013-05-14 09:49:00,
2013-05-14 05:54:00,38.2,33.2,30.10,NW,323,1.2,3.5,82,0.00,BKN,,0.00,WeatherDisplay:10.37,2013-05-14 09:54:00,
2013-05-14 05:59:00,38.0,33.0,30.10,NW,311,2.8,3.5,82,0.00,BKN,,0.00,WeatherDisplay:10.37,2013-05-14 09:59:00,
2013-05-14 06:04:00,37.9,32.9,30.10,NW,310,3.0,3.5,82,0.00,BKN,,0.00,WeatherDisplay:10.37,2013-05-14 10:04:00,
2013-05-14 06:09:00,37.8,33.1,30.11,NW,310,2.5,3.5,83,0.00,BKN,,0.00,WeatherDisplay:10.37,2013-05-14 10:09:00,
2013-05-14 06:14:00,37.8,33.1,30.11,NW,305,2.3,3.5,83,0.00,SCT,,0.00,WeatherDisplay:10.37,2013-05-14 10:14:00,
2013-05-14 06:19:00,37.7,33.3,30.10,NW,305,1.7,3.5,84,0.00,SCT,,0.00,WeatherDisplay:10.37,2013-05-14 10:19:00,
2013-05-14 06:24:00,37.7,33.3,30.11,NW,304,2.2,3.5,84,0.00,SCT,,0.00,WeatherDisplay:10.37,2013-05-14 10:24:00,
2013-05-14 06:29:00,37.7,33.3,30.11,NW,304,0.1,1.2,84,0.00,SCT,,0.00,WeatherDisplay:10.37,2013-05-14 10:29:00,
2013-05-14 06:34:00,37.7,33.3,30.11,WNW,298,3.0,4.6,84,0.00,SCT,,0.00,WeatherDisplay:10.37,2013-05-14 10:34:00,
2013-05-14 06:39:00,37.9,33.8,30.11,WNW,294,2.8,4.6,85,0.00,SCT,,0.00,WeatherDisplay:10.37,2013-05-14 10:39:00,
2013-05-14 06:44:00,37.9,33.8,30.11,NW,304,0.5,3.5,85,0.00,SCT,,0.00,WeatherDisplay:10.37,2013-05-14 10:44:00,
2013-05-14 06:50:00,38.0,33.9,30.11,NW,314,1.6,3.5,85,0.00,SCT,,0.00,WeatherDisplay:10.37,2013-05-14 10:50:00,
2013-05-14 06:55:00,38.0,33.9,30.11,NW,314,1.8,3.5,85,0.00,SCT,,0.00,WeatherDisplay:10.37,2013-05-14 10:55:00,
2013-05-14 07:00:00,38.1,34.0,30.11,NW,319,1.4,3.5,85,0.00,SCT,,0.00,WeatherDisplay:10.37,2013-05-14 11:00:00,
2013-05-14 07:05:00,38.2,34.4,30.12,West,278,1.9,6.0,86,0.00,FEW,,0.00,WeatherDisplay:10.37,2013-05-14 11:05:00,
2013-05-14 07:10:00,38.4,34.6,30.12,West,271,1.7,3.5,86,0.00,FEW,,0.00,WeatherDisplay:10.37,2013-05-14 11:10:00,
2013-05-14 07:15:00,38.7,34.6,30.12,WNW,292,1.7,5.0,85,0.00,FEW,,0.00,WeatherDisplay:10.37,2013-05-14 11:15:00,
2013-05-14 07:20:00,39.0,34.9,30.12,WNW,285,3.0,5.8,85,0.00,FEW,,0.00,WeatherDisplay:10.37,2013-05-14 11:20:00,
2013-05-14 07:25:00,39.3,35.2,30.12,WNW,300,6.1,12.0,85,0.00,FEW,,0.00,WeatherDisplay:10.37,2013-05-14 11:25:00,
2013-05-14 07:31:00,39.8,35.4,30.12,West,260,3.3,6.9,84,0.00,FEW,,0.00,WeatherDisplay:10.37,2013-05-14 11:31:00,
2013-05-14 07:36:00,40.2,35.8,30.12,WNW,292,4.1,6.9,84,0.00,FEW,,0.00,WeatherDisplay:10.37,2013-05-14 11:36:00,
2013-05-14 07:41:00,40.7,35.9,30.12,WNW,300,4.6,6.9,83,0.00,FEW,,0.00,WeatherDisplay:10.37,2013-05-14 11:41:00,
2013-05-14 07:46:00,41.1,35.7,30.12,WNW,290,8.2,11.5,81,0.00,FEW,,0.00,WeatherDisplay:10.37,2013-05-14 11:46:00,
2013-05-14 07:51:00,41.5,35.5,30.12,WSW,248,4.9,11.5,79,0.00,FEW,,0.00,WeatherDisplay:10.37,2013-05-14 11:51:00,
2013-05-14 07:56:00,41.8,35.4,30.12,West,280,6.8,12.7,78,0.00,FEW,,0.00,WeatherDisplay:10.37,2013-05-14 11:56:00,
2013-05-14 08:02:00,42.1,35.7,30.12,NW,308,4.3,9.2,78,0.00,FEW,,0.00,WeatherDisplay:10.37,2013-05-14 12:02:00,
2013-05-14 08:07:00,42.5,36.1,30.12,West,275,4.9,9.0,78,0.00,FEW,,0.00,WeatherDisplay:10.37,2013-05-14 12:07:00,
2013-05-14 08:12:00,42.9,36.5,30.12,NNW,327,3.6,6.9,78,0.00,FEW,,0.00,WeatherDisplay:10.37,2013-05-14 12:12:00,
2013-05-14 08:17:00,43.3,36.6,30.12,West,281,3.7,6.9,77,0.00,FEW,,0.00,WeatherDisplay:10.37,2013-05-14 12:17:00,
2013-05-14 08:22:00,43.6,36.5,30.12,West,274,4.0,6.9,76,0.00,FEW,,0.00,WeatherDisplay:10.37,2013-05-14 12:22:00,
2013-05-14 08:27:00,43.9,36.5,30.12,NW,316,5.4,10.4,75,0.00,FEW,,0.00,WeatherDisplay:10.37,2013-05-14 12:27:00,
2013-05-14 08:32:00,44.3,36.9,30.12,West,270,3.5,10.0,75,0.00,FEW,,0.00,WeatherDisplay:10.37,2013-05-14 12:32:00,
2013-05-14 08:38:00,44.6,36.8,30.12,WNW,287,4.8,7.0,74,0.00,FEW,,0.00,WeatherDisplay:10.37,2013-05-14 12:38:00,
2013-05-14 08:43:00,44.9,36.8,30.12,NNW,331,3.5,9.2,73,0.00,FEW,,0.00,WeatherDisplay:10.37,2013-05-14 12:43:00,
2013-05-14 08:48:00,45.2,36.7,30.12,WNW,291,2.7,6.9,72,0.00,FEW,,0.00,WeatherDisplay:10.37,2013-05-14 12:48:00,
2013-05-14 08:53:00,45.5,36.3,30.11,West,265,7.6,11.5,70,0.00,FEW,,0.00,WeatherDisplay:10.37,2013-05-14 12:53:00,
2013-05-14 08:58:00,45.5,36.3,30.12,WNW,286,4.4,10.4,70,0.00,FEW,,0.00,WeatherDisplay:10.37,2013-05-14 12:58:00,
2013-05-14 09:03:00,45.8,36.6,30.11,WSW,239,2.1,5.0,70,0.00,FEW,,0.00,WeatherDisplay:10.37,2013-05-14 13:03:00,
2013-05-14 09:08:00,46.4,37.9,30.11,NW,304,3.2,6.9,72,0.00,FEW,,0.00,WeatherDisplay:10.37,2013-05-14 13:08:00,
2013-05-14 09:13:00,46.7,36.3,30.11,West,281,6.3,11.5,67,0.00,FEW,,0.00,WeatherDisplay:10.37,2013-05-14 13:13:00,
2013-05-14 09:19:00,46.7,36.3,30.11,WNW,288,4.4,6.9,67,0.00,FEW,,0.00,WeatherDisplay:10.37,2013-05-14 13:19:00,
2013-05-14 09:24:00,47.1,37.8,30.11,West,267,1.4,4.6,70,0.00,FEW,,0.00,WeatherDisplay:10.37,2013-05-14 13:24:00,
2013-05-14 09:29:00,47.8,37.7,30.11,WSW,241,4.4,9.2,68,0.00,FEW,,0.00,WeatherDisplay:10.37,2013-05-14 13:29:00,
2013-05-14 09:34:00,48.1,37.7,30.10,West,269,5.9,10.4,67,0.00,FEW,,0.00,WeatherDisplay:10.37,2013-05-14 13:34:00,
2013-05-14 09:39:00,48.3,37.1,30.10,West,269,4.0,5.8,65,0.00,FEW,,0.00,WeatherDisplay:10.37,2013-05-14 13:39:00,
2013-05-14 09:44:00,47.7,36.1,30.10,NW,304,3.3,6.9,64,0.00,FEW,,0.00,WeatherDisplay:10.37,2013-05-14 13:44:00,
2013-05-14 09:49:00,47.9,36.3,30.10,North,5,2.9,4.6,64,0.00,FEW,,0.00,WeatherDisplay:10.37,2013-05-14 13:49:00,
2013-05-14 09:54:00,48.6,38.5,30.10,NNW,345,3.8,9.0,68,0.00,FEW,,0.00,WeatherDisplay:10.37,2013-05-14 13:54:00,
2013-05-14 09:59:00,49.5,39.0,30.10,NNE,31,2.7,10.4,67,0.00,FEW,,0.00,WeatherDisplay:10.37,2013-05-14 13:59:00,
2013-05-14 10:04:00,50.1,38.0,30.10,NNE,20,3.2,4.6,63,0.00,FEW,,0.00,WeatherDisplay:10.37,2013-05-14 14:04:00,
2013-05-14 10:10:00,50.7,38.1,30.10,ENE,69,1.3,5.8,62,0.00,FEW,,0.00,WeatherDisplay:10.37,2013-05-14 14:10:00,
2013-05-14 10:15:00,50.8,37.4,30.10,NW,304,1.5,3.5,60,0.00,FEW,,0.00,WeatherDisplay:10.37,2013-05-14 14:15:00,
2013-05-14 10:20:00,50.8,37.8,30.10,NW,307,5.0,10.4,61,0.00,FEW,,0.00,WeatherDisplay:10.37,2013-05-14 14:20:00,
2013-05-14 10:25:00,51.0,36.7,30.09,West,261,4.1,6.9,58,0.00,FEW,,0.00,WeatherDisplay:10.37,2013-05-14 14:25:00,
2013-05-14 10:30:00,50.7,36.5,30.10,WNW,286,4.5,9.2,58,0.00,FEW,,0.00,WeatherDisplay:10.37,2013-05-14 14:30:00,
2013-05-14 10:35:00,50.7,36.0,30.09,WNW,300,2.7,4.6,57,0.00,FEW,,0.00,WeatherDisplay:10.37,2013-05-14 14:35:00,
2013-05-14 10:40:00,51.0,38.4,30.10,NNE,24,6.2,10.4,62,0.00,FEW,,0.00,WeatherDisplay:10.37,2013-05-14 14:40:00,
2013-05-14 10:45:00,51.2,36.9,30.09,WNW,284,2.7,3.5,58,0.00,FEW,,0.00,WeatherDisplay:10.37,2013-05-14 14:45:00,
2013-05-14 10:51:00,51.4,37.1,30.09,North,355,1.1,3.5,58,0.00,FEW,,0.00,WeatherDisplay:10.37,2013-05-14 14:51:00,
2013-05-14 10:56:00,51.8,37.5,30.09,West,277,3.4,4.6,58,0.00,FEW,,0.00,WeatherDisplay:10.37,2013-05-14 14:56:00,
2013-05-14 11:01:00,52.2,36.5,30.09,West,260,4.6,6.0,55,0.00,SCT,,0.00,WeatherDisplay:10.37,2013-05-14 15:01:00,
2013-05-14 11:06:00,51.5,35.4,30.09,WSW,250,5.9,10.4,54,0.00,SCT,,0.00,WeatherDisplay:10.37,2013-05-14 15:06:00,
2013-05-14 11:11:00,51.1,35.9,30.09,NNW,336,1.4,3.5,56,0.00,SCT,,0.00,WeatherDisplay:10.37,2013-05-14 15:11:00,
2013-05-14 11:16:00,51.8,38.3,30.09,NNE,13,3.5,8.1,60,0.00,SCT,,0.00,WeatherDisplay:10.37,2013-05-14 15:16:00,
2013-05-14 11:21:00,53.0,38.2,30.08,NW,323,7.3,12.7,57,0.00,SCT,,0.00,WeatherDisplay:10.37,2013-05-14 15:21:00,
2013-05-14 11:26:00,53.6,38.7,30.08,West,279,4.6,9.2,57,0.00,SCT,,0.00,WeatherDisplay:10.37,2013-05-14 15:26:00,
2013-05-14 11:31:00,54.1,39.2,30.08,WNW,288,5.5,9.2,57,0.00,SCT,,0.00,WeatherDisplay:10.37,2013-05-14 15:31:00,
2013-05-14 11:36:00,54.5,38.2,30.08,NNW,337,3.1,5.8,54,0.00,SCT,,0.00,WeatherDisplay:10.37,2013-05-14 15:36:00,
2013-05-14 11:41:00,54.7,36.9,30.08,West,262,0.6,3.5,51,0.00,SCT,,0.00,WeatherDisplay:10.37,2013-05-14 15:41:00,
2013-05-14 11:46:00,54.1,35.9,30.08,West,278,0.1,3.5,50,0.00,SCT,,0.00,WeatherDisplay:10.37,2013-05-14 15:46:00,
2013-05-14 11:51:00,53.6,36.9,30.08,East,98,4.0,5.8,53,0.00,SCT,,0.00,WeatherDisplay:10.37,2013-05-14 15:51:00,
2013-05-14 11:56:00,53.4,37.6,30.08,NNE,25,1.2,5.8,55,0.00,SCT,,0.00,WeatherDisplay:10.37,2013-05-14 15:56:00,
2013-05-14 12:02:00,53.2,38.4,30.08,NE,47,0.6,3.5,57,0.00,BKN,,0.00,WeatherDisplay:10.37,2013-05-14 16:02:00,
2013-05-14 12:07:00,53.5,37.3,30.08,WNW,302,3.4,5.8,54,0.00,BKN,,0.00,WeatherDisplay:10.37,2013-05-14 16:07:00,
2013-05-14 12:12:00,53.9,36.7,30.08,NE,35,2.1,5.8,52,0.00,BKN,,0.00,WeatherDisplay:10.37,2013-05-14 16:12:00,
2013-05-14 12:17:00,53.1,34.4,30.08,West,275,4.1,5.8,49,0.00,BKN,,0.00,WeatherDisplay:10.37,2013-05-14 16:17:00,
2013-05-14 12:22:00,53.0,38.2,30.08,NNW,340,4.5,10.4,57,0.00,BKN,,0.00,WeatherDisplay:10.37,2013-05-14 16:22:00,
2013-05-14 12:27:00,54.1,34.3,30.08,WSW,240,8.8,10.4,47,0.00,BKN,,0.00,WeatherDisplay:10.37,2013-05-14 16:27:00,
2013-05-14 12:32:00,54.2,37.4,30.08,South,186,3.2,3.5,53,0.00,BKN,,0.00,WeatherDisplay:10.37,2013-05-14 16:32:00,
2013-05-14 12:38:00,54.6,36.8,30.08,WNW,301,9.3,11.5,51,0.00,BKN,,0.00,WeatherDisplay:10.37,2013-05-14 16:38:00,
2013-05-14 12:43:00,54.3,34.5,30.08,WNW,284,5.2,8.1,47,0.00,BKN,,0.00,WeatherDisplay:10.37,2013-05-14 16:43:00,
2013-05-14 12:48:00,53.8,35.6,30.08,North,350,1.3,4.6,50,0.00,BKN,,0.00,WeatherDisplay:10.37,2013-05-14 16:48:00,
2013-05-14 12:53:00,53.2,35.5,30.08,NW,325,4.8,10.4,51,0.00,BKN,,0.00,WeatherDisplay:10.37,2013-05-14 16:53:00,
2013-05-14 12:58:00,52.6,35.0,30.08,West,281,6.0,8.1,51,0.00,BKN,,0.00,WeatherDisplay:10.37,2013-05-14 16:58:00,
2013-05-14 13:03:00,52.3,34.7,30.08,WNW,284,3.5,5.0,51,0.00,BKN,,0.00,WeatherDisplay:10.37,2013-05-14 17:03:00,
2013-05-14 13:08:00,52.4,34.3,30.08,WNW,294,5.4,11.5,50,0.00,BKN,,0.00,WeatherDisplay:10.37,2013-05-14 17:08:00,
2013-05-14 13:13:00,52.6,33.5,30.08,West,264,5.1,9.0,48,0.00,BKN,,0.00,WeatherDisplay:10.37,2013-05-14 17:13:00,
2013-05-14 13:18:00,53.0,35.8,30.08,West,273,4.8,8.1,52,0.00,BKN,,0.00,WeatherDisplay:10.37,2013-05-14 17:18:00,
2013-05-14 13:23:00,54.0,34.7,30.08,WSW,248,4.1,6.0,48,0.00,BKN,,0.00,WeatherDisplay:10.37,2013-05-14 17:23:00,
2013-05-14 13:28:00,55.6,37.7,30.08,NW,312,3.8,11.0,51,0.00,BKN,,0.00,WeatherDisplay:10.37,2013-05-14 17:28:00,
2013-05-14 13:33:00,56.0,35.5,30.08,North,350,4.1,11.5,46,0.00,BKN,,0.00,WeatherDisplay:10.37,2013-05-14 17:33:00,
2013-05-14 13:39:00,56.0,36.0,30.08,NE,51,2.0,5.8,47,0.00,BKN,,0.00,WeatherDisplay:10.37,2013-05-14 17:39:00,
2013-05-14 13:44:00,55.4,35.5,30.07,SSW,193,3.2,6.9,47,0.00,BKN,,0.00,WeatherDisplay:10.37,2013-05-14 17:44:00,
2013-05-14 13:49:00,55.3,38.9,30.07,NNE,21,3.5,6.9,54,0.00,BKN,,0.00,WeatherDisplay:10.37,2013-05-14 17:49:00,
2013-05-14 13:54:00,55.3,36.5,30.07,North,349,0.5,2.3,49,0.00,BKN,,0.00,WeatherDisplay:10.37,2013-05-14 17:54:00,
2013-05-14 13:59:00,55.2,35.8,30.07,NNE,20,7.2,10.4,48,0.00,BKN,,0.00,WeatherDisplay:10.37,2013-05-14 17:59:00,
2013-05-14 14:04:00,55.0,37.7,30.07,NW,323,4.1,6.9,52,0.00,BKN,,0.00,WeatherDisplay:10.37,2013-05-14 18:04:00,
2013-05-14 14:09:00,55.1,37.3,30.07,North,5,1.4,3.5,51,0.00,BKN,,0.00,WeatherDisplay:10.37,2013-05-14 18:09:00,
2013-05-14 14:14:00,55.3,37.0,30.07,North,5,3.4,6.0,50,0.00,BKN,,0.00,WeatherDisplay:10.37,2013-05-14 18:14:00,
2013-05-14 14:20:00,55.9,35.9,30.07,WSW,256,6.1,10.0,47,0.00,BKN,,0.00,WeatherDisplay:10.37,2013-05-14 18:20:00,
2013-05-14 14:25:00,55.7,34.7,30.07,West,261,9.2,12.7,45,0.00,BKN,,0.00,WeatherDisplay:10.37,2013-05-14 18:25:00,
2013-05-14 14:30:00,54.4,34.0,30.07,West,279,6.1,10.4,46,0.00,BKN,,0.00,WeatherDisplay:10.37,2013-05-14 18:30:00,
2013-05-14 14:35:00,53.8,34.6,30.07,NW,320,4.2,6.9,48,0.00,BKN,,0.00,WeatherDisplay:10.37,2013-05-14 18:35:00,
2013-05-14 14:40:00,53.5,33.2,30.07,NW,313,4.3,10.4,46,0.00,BKN,,0.00,WeatherDisplay:10.37,2013-05-14 18:40:00,
2013-05-14 14:45:00,53.7,33.9,30.06,WNW,288,2.4,3.5,47,0.00,BKN,,0.00,WeatherDisplay:10.37,2013-05-14 18:45:00,
2013-05-14 14:50:00,54.5,36.7,30.06,West,280,0.6,3.5,51,0.00,BKN,,0.00,WeatherDisplay:10.37,2013-05-14 18:50:00,
2013-05-14 14:55:00,55.4,37.6,30.06,NNW,329,5.3,9.2,51,0.00,BKN,,0.00,WeatherDisplay:10.37,2013-05-14 18:55:00,
2013-05-14 15:00:00,55.9,37.0,30.06,NW,313,2.4,5.8,49,0.00,BKN,,0.00,WeatherDisplay:10.37,2013-05-14 19:00:00,
2013-05-14 15:05:00,55.6,33.4,30.06,NW,323,0.3,3.0,43,0.00,BKN,,0.00,WeatherDisplay:10.37,2013-05-14 19:05:00,
2013-05-14 15:10:00,55.3,35.4,30.06,North,5,0.4,2.3,47,0.00,BKN,,0.00,WeatherDisplay:10.37,2013-05-14 19:10:00,
2013-05-14 15:15:00,55.3,38.0,30.06,NW,306,3.2,3.5,52,0.00,BKN,,0.00,WeatherDisplay:10.37,2013-05-14 19:15:00,
2013-05-14 15:21:00,55.2,34.2,30.05,WNW,290,4.3,6.0,45,0.00,BKN,,0.00,WeatherDisplay:10.37,2013-05-14 19:21:00,
2013-05-14 15:26:00,55.0,34.0,30.05,WNW,288,3.1,6.9,45,0.00,BKN,,0.00,WeatherDisplay:10.37,2013-05-14 19:26:00,
2013-05-14 15:31:00,54.9,35.6,30.05,NNE,31,2.2,5.8,48,0.00,BKN,,0.00,WeatherDisplay:10.37,2013-05-14 19:31:00,
2013-05-14 15:36:00,55.0,35.7,30.05,North,360,2.6,4.0,48,0.00,BKN,,0.00,WeatherDisplay:10.37,2013-05-14 19:36:00,
2013-05-14 15:41:00,55.1,34.7,30.05,North,360,2.8,5.8,46,0.00,BKN,,0.00,WeatherDisplay:10.37,2013-05-14 19:41:00,
2013-05-14 15:46:00,55.2,36.4,30.05,NNW,344,3.6,5.8,49,0.00,BKN,,0.00,WeatherDisplay:10.37,2013-05-14 19:46:00,
2013-05-14 15:51:00,56.0,37.1,30.04,West,263,5.8,6.9,49,0.00,BKN,,0.00,WeatherDisplay:10.37,2013-05-14 19:51:00,
2013-05-14 15:56:00,57.3,36.1,30.04,West,263,7.7,10.4,45,0.00,BKN,,0.00,WeatherDisplay:10.37,2013-05-14 19:56:00,
2013-05-14 16:01:00,57.8,36.6,30.03,West,271,5.1,9.2,45,0.00,BKN,,0.00,WeatherDisplay:10.37,2013-05-14 20:01:00,
2013-05-14 16:06:00,57.5,37.4,30.03,West,277,0.0,0.0,47,0.00,BKN,,0.00,WeatherDisplay:10.37,2013-05-14 20:06:00,
2013-05-14 16:12:00,57.4,37.3,30.03,NNE,26,8.1,11.5,47,0.00,BKN,,0.00,WeatherDisplay:10.37,2013-05-14 20:12:00,
2013-05-14 16:17:00,58.4,36.0,30.03,NNE,32,4.3,13.8,43,0.00,BKN,,0.00,WeatherDisplay:10.37,2013-05-14 20:17:00,
2013-05-14 16:22:00,58.6,35.0,30.03,NW,313,1.1,3.5,41,0.00,BKN,,0.00,WeatherDisplay:10.37,2013-05-14 20:22:00,
2013-05-14 16:27:00,57.9,35.5,30.03,West,281,4.4,4.6,43,0.00,BKN,,0.00,WeatherDisplay:10.37,2013-05-14 20:27:00,
2013-05-14 16:32:00,58.3,34.7,30.02,West,277,8.9,13.8,41,0.00,BKN,,0.00,WeatherDisplay:10.37,2013-05-14 20:32:00,
2013-05-14 16:37:00,58.8,36.3,30.02,WNW,284,2.3,5.0,43,0.00,BKN,,0.00,WeatherDisplay:10.37,2013-05-14 20:37:00,
2013-05-14 16:42:00,58.7,36.2,30.03,NNE,23,1.0,5.8,43,0.00,BKN,,0.00,WeatherDisplay:10.37,2013-05-14 20:42:00,
2013-05-14 16:47:00,58.6,36.7,30.02,North,5,0.9,2.3,44,0.00,BKN,,0.00,WeatherDisplay:10.37,2013-05-14 20:47:00,
2013-05-14 16:52:00,58.1,35.1,30.02,North,5,1.7,4.6,42,0.00,BKN,,0.00,WeatherDisplay:10.37,2013-05-14 20:52:00,
2013-05-14 16:58:00,57.6,36.4,30.02,North,11,0.6,4.6,45,0.00,BKN,,0.00,WeatherDisplay:10.37,2013-05-14 20:58:00,
2013-05-14 17:03:00,57.2,37.1,30.02,NNW,348,3.1,3.5,47,0.00,SCT,,0.00,WeatherDisplay:10.37,2013-05-14 21:03:00,
2013-05-14 17:08:00,57.0,37.0,30.02,NE,44,3.9,6.9,47,0.00,SCT,,0.00,WeatherDisplay:10.37,2013-05-14 21:08:00,
2013-05-14 17:13:00,58.3,37.6,30.02,NNW,327,0.8,3.5,46,0.00,SCT,,0.00,WeatherDisplay:10.37,2013-05-14 21:13:00,
2013-05-14 17:18:00,59.3,36.8,30.02,SSW,192,0.2,1.0,43,0.00,SCT,,0.00,WeatherDisplay:10.37,2013-05-14 21:18:00,
2013-05-14 17:23:00,59.4,35.7,30.02,WSW,249,6.7,9.2,41,0.00,SCT,,0.00,WeatherDisplay:10.37,2013-05-14 21:23:00,
2013-05-14 17:28:00,59.0,32.7,30.02,West,265,7.1,10.4,37,0.00,SCT,,0.00,WeatherDisplay:10.37,2013-05-14 21:28:00,
2013-05-14 17:33:00,58.6,33.7,30.02,WNW,288,5.4,11.5,39,0.00,SCT,,0.00,WeatherDisplay:10.37,2013-05-14 21:33:00,
2013-05-14 17:39:00,57.9,33.7,30.02,NNW,328,3.7,8.1,40,0.00,SCT,,0.00,WeatherDisplay:10.37,2013-05-14 21:39:00,
2013-05-14 17:44:00,56.5,33.7,30.02,NW,313,3.2,6.9,42,0.00,SCT,,0.00,WeatherDisplay:10.37,2013-05-14 21:44:00,
2013-05-14 17:49:00,56.0,34.4,30.02,WSW,248,4.2,6.0,44,0.00,SCT,,0.00,WeatherDisplay:10.37,2013-05-14 21:49:00,
2013-05-14 17:54:00,56.3,32.3,30.02,WNW,286,2.5,5.8,40,0.00,SCT,,0.00,WeatherDisplay:10.37,2013-05-14 21:54:00,
2013-05-14 17:59:00,57.1,33.0,30.01,WNW,291,10.6,12.7,40,0.00,SCT,,0.00,WeatherDisplay:10.37,2013-05-14 21:59:00,
2013-05-14 18:04:00,57.7,34.7,30.02,WNW,294,4.1,5.0,42,0.00,SCT,,0.00,WeatherDisplay:10.37,2013-05-14 22:04:00,
2013-05-14 18:09:00,58.0,35.0,30.01,NNW,338,2.0,11.5,42,0.00,SCT,,0.00,WeatherDisplay:10.37,2013-05-14 22:09:00,
2013-05-14 18:14:00,57.9,34.3,30.01,North,360,6.4,10.4,41,0.00,SCT,,0.00,WeatherDisplay:10.37,2013-05-14 22:14:00,
2013-05-14 18:19:00,57.9,34.9,30.01,NNW,338,5.6,9.0,42,0.00,SCT,,0.00,WeatherDisplay:10.37,2013-05-14 22:19:00,
2013-05-14 18:24:00,58.2,34.6,30.01,NW,311,3.6,8.1,41,0.00,SCT,,0.00,WeatherDisplay:10.37,2013-05-14 22:24:00,
2013-05-14 18:30:00,58.5,34.9,30.01,West,280,0.2,5.8,41,0.00,SCT,,0.00,WeatherDisplay:10.37,2013-05-14 22:30:00,
2013-05-14 18:35:00,58.1,33.9,30.01,NNW,336,5.7,11.5,40,0.00,SCT,,0.00,WeatherDisplay:10.37,2013-05-14 22:35:00,
2013-05-14 18:40:00,57.9,34.3,30.01,WNW,292,3.7,6.0,41,0.00,SCT,,0.00,WeatherDisplay:10.37,2013-05-14 22:40:00,
2013-05-14 18:45:00,57.6,32.8,30.01,NW,323,3.6,4.0,39,0.00,SCT,,0.00,WeatherDisplay:10.37,2013-05-14 22:45:00,
2013-05-14 18:50:00,57.1,33.0,30.02,NNW,339,3.2,4.6,40,0.00,SCT,,0.00,WeatherDisplay:10.37,2013-05-14 22:50:00,
2013-05-14 18:55:00,56.4,34.2,30.02,WNW,286,0.4,2.3,43,0.00,SCT,,0.00,WeatherDisplay:10.37,2013-05-14 22:55:00,
2013-05-14 19:00:00,56.2,33.4,30.01,West,262,4.3,6.9,42,0.00,SCT,,0.00,WeatherDisplay:10.37,2013-05-14 23:00:00,
2013-05-14 19:05:00,56.1,33.3,30.01,West,280,1.9,3.5,42,0.00,SCT,,0.00,WeatherDisplay:10.37,2013-05-14 23:05:00,
2013-05-14 19:10:00,56.2,32.8,30.01,West,281,1.1,3.5,41,0.00,SCT,,0.00,WeatherDisplay:10.37,2013-05-14 23:10:00,
2013-05-14 19:15:00,56.4,33.6,30.02,NW,308,1.3,3.5,42,0.00,SCT,,0.00,WeatherDisplay:10.37,2013-05-14 23:15:00,
2013-05-14 19:20:00,56.6,33.8,30.01,NW,308,2.5,4.6,42,0.00,SCT,,0.00,WeatherDisplay:10.37,2013-05-14 23:20:00,
2013-05-14 19:25:00,56.4,35.3,30.01,West,267,4.7,11.5,45,0.00,SCT,,0.00,WeatherDisplay:10.37,2013-05-14 23:25:00,
2013-05-14 19:31:00,55.6,33.4,30.01,WNW,289,6.8,10.4,43,0.00,SCT,,0.00,WeatherDisplay:10.37,2013-05-14 23:31:00,
2013-05-14 19:36:00,54.9,33.4,30.02,West,278,4.3,7.0,44,0.00,SCT,,0.00,WeatherDisplay:10.37,2013-05-14 23:36:00,
2013-05-14 19:41:00,54.2,32.2,30.02,WNW,286,6.9,10.4,43,0.00,SCT,,0.00,WeatherDisplay:10.37,2013-05-14 23:41:00,
2013-05-14 19:46:00,53.5,32.1,30.02,West,274,5.0,5.8,44,0.00,SCT,,0.00,WeatherDisplay:10.37,2013-05-14 23:46:00,
2013-05-14 19:51:00,53.0,32.2,30.02,WNW,290,3.8,4.6,45,0.00,SCT,,0.00,WeatherDisplay:10.37,2013-05-14 23:51:00,
2013-05-14 19:56:00,52.4,32.2,30.03,West,275,3.4,5.8,46,0.00,SCT,,0.00,WeatherDisplay:10.37,2013-05-14 23:56:00,
2013-05-14 20:01:00,52.0,31.8,30.02,WNW,291,3.2,3.5,46,0.00,FEW,,0.00,WeatherDisplay:10.37,2013-05-15 00:01:00,
2013-05-14 20:06:00,51.6,32.0,30.02,WNW,286,4.6,5.8,47,0.00,FEW,,0.00,WeatherDisplay:10.37,2013-05-15 00:06:00,
2013-05-14 20:11:00,51.2,31.6,30.02,West,279,1.9,3.5,47,0.00,FEW,,0.00,WeatherDisplay:10.37,2013-05-15 00:11:00,
2013-05-14 20:16:00,50.8,31.8,30.03,West,279,2.6,3.5,48,0.00,FEW,,0.00,WeatherDisplay:10.37,2013-05-15 00:16:00,
2013-05-14 20:21:00,50.4,31.4,30.03,West,279,0.7,3.0,48,0.00,FEW,,0.00,WeatherDisplay:10.37,2013-05-15 00:21:00,
2013-05-14 20:26:00,50.2,31.2,30.03,West,279,1.8,3.5,48,0.00,FEW,,0.00,WeatherDisplay:10.37,2013-05-15 00:26:00,
2013-05-14 20:31:00,50.0,31.6,30.03,West,279,1.3,3.5,49,0.00,FEW,,0.00,WeatherDisplay:10.37,2013-05-15 00:31:00,
2013-05-14 20:36:00,49.8,31.4,30.03,West,279,1.4,3.0,49,0.00,FEW,,0.00,WeatherDisplay:10.37,2013-05-15 00:36:00,
2013-05-14 20:42:00,49.6,31.2,30.03,West,279,1.3,2.3,49,0.00,FEW,,0.00,WeatherDisplay:10.37,2013-05-15 00:42:00,
2013-05-14 20:47:00,49.4,31.0,30.03,West,279,2.4,3.5,49,0.00,FEW,,0.00,WeatherDisplay:10.37,2013-05-15 00:47:00,
2013-05-14 20:52:00,49.3,31.4,30.03,West,279,1.8,3.5,50,0.00,FEW,,0.00,WeatherDisplay:10.37,2013-05-15 00:52:00,
2013-05-14 20:57:00,49.2,31.3,30.03,West,279,2.4,3.5,50,0.00,FEW,,0.00,WeatherDisplay:10.37,2013-05-15 00:57:00,
2013-05-14 21:02:00,49.1,31.2,30.03,West,279,2.5,3.5,50,0.00,FEW,,0.00,WeatherDisplay:10.37,2013-05-15 01:02:00,
2013-05-14 21:07:00,49.2,31.3,30.03,West,279,2.3,3.5,50,0.00,FEW,,0.00,WeatherDisplay:10.37,2013-05-15 01:07:00,
2013-05-14 21:13:00,49.2,31.3,30.04,West,279,2.1,3.5,50,0.00,FEW,,0.00,WeatherDisplay:10.37,2013-05-15 01:13:00,
2013-05-14 21:18:00,49.3,30.9,30.04,West,279,0.8,2.3,49,0.00,FEW,,0.00,WeatherDisplay:10.37,2013-05-15 01:18:00,
2013-05-14 21:23:00,49.2,30.8,30.04,West,279,2.7,3.5,49,0.00,FEW,,0.00,WeatherDisplay:10.37,2013-05-15 01:23:00,
2013-05-14 21:28:00,49.2,30.8,30.04,West,279,2.2,4.0,49,0.00,FEW,,0.00,WeatherDisplay:10.37,2013-05-15 01:28:00,
2013-05-14 21:33:00,49.0,31.2,30.04,West,279,2.5,3.5,50,0.00,FEW,,0.00,WeatherDisplay:10.37,2013-05-15 01:33:00,
2013-05-14 21:38:00,48.8,31.0,30.04,West,279,2.2,3.5,50,0.00,FEW,,0.00,WeatherDisplay:10.37,2013-05-15 01:38:00,
2013-05-14 21:44:00,48.6,31.3,30.04,West,279,0.1,1.2,51,0.00,FEW,,0.00,WeatherDisplay:10.37,2013-05-15 01:44:00,
2013-05-14 21:49:00,48.2,31.4,30.05,West,279,0.0,1.2,52,0.00,FEW,,0.00,WeatherDisplay:10.37,2013-05-15 01:49:00,
2013-05-14 21:54:00,47.8,31.5,30.04,West,279,0.0,0.0,53,0.00,FEW,,0.00,WeatherDisplay:10.37,2013-05-15 01:54:00,
2013-05-14 21:59:00,47.6,31.3,30.04,West,279,0.0,1.2,53,0.00,FEW,,0.00,WeatherDisplay:10.37,2013-05-15 01:59:00,
2013-05-14 22:04:00,47.5,31.7,30.04,West,279,0.0,0.0,54,0.00,FEW,,0.00,WeatherDisplay:10.37,2013-05-15 02:04:00,
2013-05-14 22:09:00,47.4,31.6,30.05,West,279,0.0,0.0,54,0.00,FEW,,0.00,WeatherDisplay:10.37,2013-05-15 02:09:00,
2013-05-14 22:14:00,47.2,31.4,30.04,West,279,0.0,1.2,54,0.00,CLR,,0.00,WeatherDisplay:10.37,2013-05-15 02:14:00,
2013-05-14 22:19:00,47.3,31.5,30.05,West,279,0.0,0.0,54,0.00,CLR,,0.00,WeatherDisplay:10.37,2013-05-15 02:19:00,
2013-05-14 22:24:00,47.1,31.7,30.05,West,279,0.1,0.0,55,0.00,CLR,,0.00,WeatherDisplay:10.37,2013-05-15 02:24:00,
2013-05-14 22:29:00,46.8,31.5,30.05,West,279,0.0,0.0,55,0.00,CLR,,0.00,WeatherDisplay:10.37,2013-05-15 02:29:00,
2013-05-14 22:34:00,46.6,31.7,30.05,West,279,0.1,0.0,56,0.00,CLR,,0.00,WeatherDisplay:10.37,2013-05-15 02:34:00,
2013-05-14 22:39:00,46.3,31.9,30.04,West,279,1.5,2.3,57,0.00,CLR,,0.00,WeatherDisplay:10.37,2013-05-15 02:39:00,
2013-05-14 22:44:00,45.9,31.9,30.04,West,279,0.0,2.3,58,0.00,CLR,,0.00,WeatherDisplay:10.37,2013-05-15 02:44:00,
2013-05-14 22:50:00,45.4,32.3,30.05,NE,35,2.1,3.5,60,0.00,CLR,,0.00,WeatherDisplay:10.37,2013-05-15 02:50:00,
2013-05-14 22:55:00,45.0,31.9,30.04,ENE,61,3.5,4.0,60,0.00,CLR,,0.00,WeatherDisplay:10.37,2013-05-15 02:55:00,
2013-05-14 23:00:00,44.6,32.4,30.04,ENE,62,2.9,3.5,62,0.00,CLR,,0.00,WeatherDisplay:10.37,2013-05-15 03:00:00,
2013-05-14 23:05:00,43.8,32.4,30.05,ENE,62,3.0,3.5,64,0.00,CLR,,0.00,WeatherDisplay:10.37,2013-05-15 03:05:00,
2013-05-14 23:10:00,43.5,32.5,30.05,ENE,62,2.5,3.5,65,0.00,CLR,,0.00,WeatherDisplay:10.37,2013-05-15 03:10:00,
2013-05-14 23:15:00,43.3,32.7,30.05,ENE,62,3.1,3.5,66,0.00,CLR,,0.00,WeatherDisplay:10.37,2013-05-15 03:15:00,
2013-05-14 23:20:00,43.3,33.1,30.05,ENE,62,2.7,3.5,67,0.00,CLR,,0.00,WeatherDisplay:10.37,2013-05-15 03:20:00,
2013-05-14 23:25:00,43.0,33.2,30.05,ENE,63,2.9,4.0,68,0.00,CLR,,0.00,WeatherDisplay:10.37,2013-05-15 03:25:00,
2013-05-14 23:30:00,42.7,33.2,30.05,ENE,63,1.7,2.3,69,0.00,CLR,,0.00,WeatherDisplay:10.37,2013-05-15 03:30:00,
2013-05-14 23:36:00,42.4,32.9,30.05,ENE,70,1.6,3.5,69,0.00,CLR,,0.00,WeatherDisplay:10.37,2013-05-15 03:36:00,
2013-05-14 23:41:00,42.2,32.4,30.05,ESE,109,1.8,3.5,68,0.00,CLR,,0.00,WeatherDisplay:10.37,2013-05-15 03:41:00,
2013-05-14 23:46:00,42.5,32.7,30.05,ESE,109,1.7,2.3,68,0.00,CLR,,0.00,WeatherDisplay:10.37,2013-05-15 03:46:00,
2013-05-14 23:51:00,42.8,33.0,30.05,ESE,109,1.6,2.3,68,0.00,CLR,,0.00,WeatherDisplay:10.37,2013-05-15 03:51:00,
2013-05-14 23:56:00,42.9,33.1,30.05,ESE,109,1.7,2.3,68,0.00,CLR,,0.00,WeatherDisplay:10.37,2013-05-15 03:56:00,